******** Week 146 almanac for PRN-1 ******** ID: 1 Health: 0 Eccentricity: 0.0112953186 Time of Applicability(s): 233472 Orbital Inclination(rad): 0.9864958542 Rate of Right Ascen(r/s): -7.691748963e-09 SQRT(A) (m 1/2): 5153.630371 Right Ascen at Week(rad): -1.535414401 Argument of Perigee(rad): 0.881885031 Mean Anom(rad): 2.802729333 Af0(s): 0.0003542269287 Af1(s/s): -1.091394e-11 week: 146 ******** Week 146 almanac for PRN-2 ******** ID: 2 Health: 0 Eccentricity: 0.02067995071 Time of Applicability(s): 233472 Orbital Inclination(rad): 0.9648463519 Rate of Right Ascen(r/s): -7.874613723e-09 SQRT(A) (m 1/2): 5153.635254 Right Ascen at Week(rad): -1.624285294 Argument of Perigee(rad): -1.452190326 Mean Anom(rad): 2.959591602 Af0(s): -0.0005132522095 Af1(s/s): 0 week: 146 ******** Week 146 almanac for PRN-3 ******** ID: 3 Health: 0 Eccentricity: 0.003857135773 Time of Applicability(s): 233472 Orbital Inclination(rad): 0.9725222479 Rate of Right Ascen(r/s): -7.828897533e-09 SQRT(A) (m 1/2): 5153.641602 Right Ascen at Week(rad): -0.4999155755 Argument of Perigee(rad): 0.9712161925 Mean Anom(rad): 1.637916226 Af0(s): -7.310640869e-05 Af1(s/s): -1.455192e-11 week: 146 ******** Week 146 almanac for PRN-4 ******** ID: 4 Health: 0 Eccentricity: 0.001665592194 Time of Applicability(s): 233472 Orbital Inclination(rad): 0.9611971554 Rate of Right Ascen(r/s): -7.908900866e-09 SQRT(A) (m 1/2): 5153.602539 Right Ascen at Week(rad): 0.5809323065 Argument of Perigee(rad): -3.093939632 Mean Anom(rad): -1.66885163 Af0(s): -0.0001529958862 Af1(s/s): 3.637979e-12 week: 146 ******** Week 146 almanac for PRN-5 ******** ID: 5 Health: 0 Eccentricity: 0.00587272644 Time of Applicability(s): 233472 Orbital Inclination(rad): 0.9594953954 Rate of Right Ascen(r/s): -7.977475151e-09 SQRT(A) (m 1/2): 5153.601074 Right Ascen at Week(rad): -0.5400293978 Argument of Perigee(rad): 1.012080152 Mean Anom(rad): -0.8321332703 Af0(s): -5.426455078e-05 Af1(s/s): 0 week: 146 ******** Week 146 almanac for PRN-6 ******** ID: 6 Health: 0 Eccentricity: 0.002653598785 Time of Applicability(s): 233472 Orbital Inclination(rad): 0.9858786666 Rate of Right Ascen(r/s): -7.680319916e-09 SQRT(A) (m 1/2): 5153.616699 Right Ascen at Week(rad): -1.543686138 Argument of Perigee(rad): -0.9868481159 Mean Anom(rad): -3.124543971 Af0(s): 0.0001431981201 Af1(s/s): 1.091394e-11 week: 146 ******** Week 146 almanac for PRN-7 ******** ID: 7 Health: 0 Eccentricity: 0.01545858383 Time of Applicability(s): 233472 Orbital Inclination(rad): 0.9506150848 Rate of Right Ascen(r/s): -7.886042771e-09 SQRT(A) (m 1/2): 5153.647461 Right Ascen at Week(rad): 1.60021348 Argument of Perigee(rad): -2.294039807 Mean Anom(rad): 2.137655034 Af0(s): 0.0002411757812 Af1(s/s): 3.637979e-12 week: 146 ******** Week 146 almanac for PRN-8 ******** ID: 8 Health: 0 Eccentricity: 0.007195472717 Time of Applicability(s): 233472 Orbital Inclination(rad): 0.9651699259 Rate of Right Ascen(r/s): -8.091765626e-09 SQRT(A) (m 1/2): 5153.661133 Right Ascen at Week(rad): -2.614963868 Argument of Perigee(rad): 0.08884954546 Mean Anom(rad): -1.193943012 Af0(s): -4.220576172e-05 Af1(s/s): 0 week: 146 ******** Week 146 almanac for PRN-9 ******** ID: 9 Health: 0 Eccentricity: 0.002314567566 Time of Applicability(s): 233472 Orbital Inclination(rad): 0.9542163444 Rate of Right Ascen(r/s): -8.000333246e-09 SQRT(A) (m 1/2): 5153.574707 Right Ascen at Week(rad): 0.5281519074 Argument of Perigee(rad): 1.862465397 Mean Anom(rad): -0.8516690549 Af0(s): -0.0002818741943 Af1(s/s): 0 week: 146 ******** Week 146 almanac for PRN-10 ******** ID: 10 Health: 0 Eccentricity: 0.007473945618 Time of Applicability(s): 233472 Orbital Inclination(rad): 0.9723424845 Rate of Right Ascen(r/s): -7.840326581e-09 SQRT(A) (m 1/2): 5153.628418 Right Ascen at Week(rad): -0.502711645 Argument of Perigee(rad): -2.528679321 Mean Anom(rad): 0.7858546878 Af0(s): -0.0002389147583 Af1(s/s): -1.091394e-11 week: 146 ******** Week 146 almanac for PRN-11 ******** ID: 11 Health: 255 Eccentricity: 0.0002889633179 Time of Applicability(s): 233472 Orbital Inclination(rad): 0.9616106111 Rate of Right Ascen(r/s): -7.920329913e-09 SQRT(A) (m 1/2): 5153.717285 Right Ascen at Week(rad): -1.491140181 Argument of Perigee(rad): 2.86443386 Mean Anom(rad): -1.341779287 Af0(s): -6.255496826e-05 Af1(s/s): -4.001777e-11 week: 146 ******** Week 146 almanac for PRN-12 ******** ID: 12 Health: 0 Eccentricity: 0.008618354797 Time of Applicability(s): 233472 Orbital Inclination(rad): 0.9707485826 Rate of Right Ascen(r/s): -7.943188008e-09 SQRT(A) (m 1/2): 5153.56543 Right Ascen at Week(rad): 2.712851017 Argument of Perigee(rad): 1.238164053 Mean Anom(rad): 1.47934246 Af0(s): -0.0001273709595 Af1(s/s): -7.275958e-12 week: 146 ******** Week 146 almanac for PRN-13 ******** ID: 13 Health: 0 Eccentricity: 0.005803108215 Time of Applicability(s): 233472 Orbital Inclination(rad): 0.9685974143 Rate of Right Ascen(r/s): -7.806039438e-09 SQRT(A) (m 1/2): 5153.621094 Right Ascen at Week(rad): 0.6806421812 Argument of Perigee(rad): 0.9673924757 Mean Anom(rad): -1.794696103 Af0(s): 0.0001982163452 Af1(s/s): 7.275958e-12 week: 146 ******** Week 146 almanac for PRN-14 ******** ID: 14 Health: 0 Eccentricity: 0.001345157623 Time of Applicability(s): 233472 Orbital Inclination(rad): 0.9541324548 Rate of Right Ascen(r/s): -8.091765626e-09 SQRT(A) (m 1/2): 5153.594238 Right Ascen at Week(rad): 2.681896138 Argument of Perigee(rad): 3.03552777 Mean Anom(rad): 1.523848501 Af0(s): -5.9540271e-05 Af1(s/s): -3.637979e-12 week: 146 ******** Week 146 almanac for PRN-15 ******** ID: 15 Health: 0 Eccentricity: 0.01392936707 Time of Applicability(s): 233472 Orbital Inclination(rad): 0.9301040839 Rate of Right Ascen(r/s): -8.240343243e-09 SQRT(A) (m 1/2): 5153.665527 Right Ascen at Week(rad): 0.4226738754 Argument of Perigee(rad): 1.072258563 Mean Anom(rad): -2.201273292 Af0(s): -7.009171143e-05 Af1(s/s): 3.637979e-12 week: 146 ******** Week 146 almanac for PRN-16 ******** ID: 16 Health: 0 Eccentricity: 0.01269388199 Time of Applicability(s): 233472 Orbital Inclination(rad): 0.97071263 Rate of Right Ascen(r/s): -7.954617056e-09 SQRT(A) (m 1/2): 5153.544922 Right Ascen at Week(rad): 2.731475626 Argument of Perigee(rad): 0.6996345562 Mean Anom(rad): -0.3764488474 Af0(s): -0.0003640246948 Af1(s/s): -3.637979e-12 week: 146 ******** Week 146 almanac for PRN-17 ******** ID: 17 Health: 0 Eccentricity: 0.01367712021 Time of Applicability(s): 233472 Orbital Inclination(rad): 0.9802221124 Rate of Right Ascen(r/s): -7.920329913e-09 SQRT(A) (m 1/2): 5153.700684 Right Ascen at Week(rad): -2.533400356 Argument of Perigee(rad): -1.504418702 Mean Anom(rad): -1.2884581 Af0(s): 0.0004476825439 Af1(s/s): 3.637979e-12 week: 146 ******** Week 146 almanac for PRN-18 ******** ID: 18 Health: 0 Eccentricity: 0.002091884613 Time of Applicability(s): 233472 Orbital Inclination(rad): 0.9702931821 Rate of Right Ascen(r/s): -7.840326581e-09 SQRT(A) (m 1/2): 5153.581055 Right Ascen at Week(rad): -1.527284977 Argument of Perigee(rad): 3.110257652 Mean Anom(rad): 2.992626867 Af0(s): 0.0002004773682 Af1(s/s): -7.275958e-12 week: 146 ******** Week 146 almanac for PRN-19 ******** ID: 19 Health: 0 Eccentricity: 0.008947372436 Time of Applicability(s): 233472 Orbital Inclination(rad): 0.9789398004 Rate of Right Ascen(r/s): -7.943188008e-09 SQRT(A) (m 1/2): 5153.634277 Right Ascen at Week(rad): -2.488502581 Argument of Perigee(rad): 1.999110653 Mean Anom(rad): 1.115686398 Af0(s): 8.74262207e-05 Af1(s/s): 3.637979e-12 week: 146 ******** Week 146 almanac for PRN-20 ******** ID: 20 Health: 0 Eccentricity: 0.005260467529 Time of Applicability(s): 233472 Orbital Inclination(rad): 0.9416329082 Rate of Right Ascen(r/s): -8.148910863e-09 SQRT(A) (m 1/2): 5153.676758 Right Ascen at Week(rad): -0.6536578263 Argument of Perigee(rad): 3.114490705 Mean Anom(rad): -2.436903377 Af0(s): 0.0004084914795 Af1(s/s): 0 week: 146 ******** Week 146 almanac for PRN-21 ******** ID: 21 Health: 0 Eccentricity: 0.02454805374 Time of Applicability(s): 233472 Orbital Inclination(rad): 0.9590879318 Rate of Right Ascen(r/s): -7.897471818e-09 SQRT(A) (m 1/2): 5153.544434 Right Ascen at Week(rad): -1.625784071 Argument of Perigee(rad): -1.019016023 Mean Anom(rad): -1.120197335 Af0(s): 0.0001236025879 Af1(s/s): 0 week: 146 ******** Week 146 almanac for PRN-22 ******** ID: 22 Health: 255 Eccentricity: 0.01277685165 Time of Applicability(s): 233472 Orbital Inclination(rad): 0.9613289819 Rate of Right Ascen(r/s): -7.908900866e-09 SQRT(A) (m 1/2): 5153.59375 Right Ascen at Week(rad): 0.6292328524 Argument of Perigee(rad): -1.875968997 Mean Anom(rad): -1.431014575 Af0(s): 0 Af1(s/s): 0 week: 146 ******** Week 146 almanac for PRN-23 ******** ID: 23 Health: 0 Eccentricity: 0.001972198486 Time of Applicability(s): 233472 Orbital Inclination(rad): 0.9673810154 Rate of Right Ascen(r/s): -7.886042771e-09 SQRT(A) (m 1/2): 5153.647949 Right Ascen at Week(rad): -0.5274564479 Argument of Perigee(rad): 2.935965077 Mean Anom(rad): 2.119397442 Af0(s): 6.029394531e-06 Af1(s/s): -3.637979e-12 week: 146 ******** Week 146 almanac for PRN-24 ******** ID: 24 Health: 0 Eccentricity: 0.0123090744 Time of Applicability(s): 233472 Orbital Inclination(rad): 0.9341008229 Rate of Right Ascen(r/s): -8.057478483e-09 SQRT(A) (m 1/2): 5153.641113 Right Ascen at Week(rad): 1.517790101 Argument of Perigee(rad): 0.8031385617 Mean Anom(rad): 3.104749777 Af0(s): 0.0002185655518 Af1(s/s): 0 week: 146 ******** Week 146 almanac for PRN-25 ******** ID: 25 Health: 0 Eccentricity: 0.01042222977 Time of Applicability(s): 233472 Orbital Inclination(rad): 0.9581172096 Rate of Right Ascen(r/s): -8.046049436e-09 SQRT(A) (m 1/2): 5153.669434 Right Ascen at Week(rad): 2.636403646 Argument of Perigee(rad): 0.9731640036 Mean Anom(rad): 1.239896897 Af0(s): 0.0002185655518 Af1(s/s): 7.275958e-12 week: 146 ******** Week 146 almanac for PRN-26 ******** ID: 26 Health: 0 Eccentricity: 0.006828784943 Time of Applicability(s): 233472 Orbital Inclination(rad): 0.9389424497 Rate of Right Ascen(r/s): -8.228914196e-09 SQRT(A) (m 1/2): 5153.634766 Right Ascen at Week(rad): 2.58981235 Argument of Perigee(rad): 0.354741671 Mean Anom(rad): 0.5902702647 Af0(s): 0.0001401834229 Af1(s/s): 3.637979e-12 week: 146 ******** Week 146 almanac for PRN-27 ******** ID: 27 Health: 0 Eccentricity: 0.01010227203 Time of Applicability(s): 233472 Orbital Inclination(rad): 0.9738524969 Rate of Right Ascen(r/s): -8.011762293e-09 SQRT(A) (m 1/2): 5153.601562 Right Ascen at Week(rad): -2.595712708 Argument of Perigee(rad): 0.6324453737 Mean Anom(rad): -1.255859885 Af0(s): 6.933803711e-05 Af1(s/s): 1.818989e-11 week: 146 ******** Week 146 almanac for PRN-29 ******** ID: 29 Health: 0 Eccentricity: 0.001787662506 Time of Applicability(s): 233472 Orbital Inclination(rad): 0.9822174859 Rate of Right Ascen(r/s): -7.908900866e-09 SQRT(A) (m 1/2): 5153.714844 Right Ascen at Week(rad): -2.520434174 Argument of Perigee(rad): 2.273321329 Mean Anom(rad): -1.137132918 Af0(s): -0.0003730687866 Af1(s/s): -3.637979e-12 week: 146 ******** Week 146 almanac for PRN-30 ******** ID: 30 Health: 0 Eccentricity: 0.005437374115 Time of Applicability(s): 233472 Orbital Inclination(rad): 0.9357905986 Rate of Right Ascen(r/s): -8.034620388e-09 SQRT(A) (m 1/2): 5153.532227 Right Ascen at Week(rad): 1.613674761 Argument of Perigee(rad): -2.749941818 Mean Anom(rad): 2.159603768 Af0(s): -0.000402462085 Af1(s/s): -3.637979e-12 week: 146 ******** Week 146 almanac for PRN-31 ******** ID: 31 Health: 0 Eccentricity: 0.01047039032 Time of Applicability(s): 233472 Orbital Inclination(rad): 0.9548515083 Rate of Right Ascen(r/s): -7.828897533e-09 SQRT(A) (m 1/2): 5153.62793 Right Ascen at Week(rad): 1.618231388 Argument of Perigee(rad): 0.3696601585 Mean Anom(rad): 1.686351969 Af0(s): -0.0001273709595 Af1(s/s): 0 week: 146 ******** Week 146 almanac for PRN-32 ******** ID: 32 Health: 0 Eccentricity: 0.005466461182 Time of Applicability(s): 233472 Orbital Inclination(rad): 0.9580752648 Rate of Right Ascen(r/s): -7.954617056e-09 SQRT(A) (m 1/2): 5153.709473 Right Ascen at Week(rad): 0.5392620329 Argument of Perigee(rad): -2.368698532 Mean Anom(rad): -0.5849623766 Af0(s): -4.446678467e-05 Af1(s/s): -7.275958e-12 week: 146